Location: Nitra
(0.0000°N, 18.0833°E)
Time: 08:54:48
(UTC+01:00)

Mugunghwa Rocket - Pass Details

Date: 25 September 2022
Orbit: 936 x 1372 km, 26.7° (Epoch: 28 November)

Event Time Altitude Azimuth Distance (km) Brightness Sun altitude
Rises 20:32:04 0° 300° (WNW) 4,206 8.2 -28.2°
Reaches altitude 10° 20:35:05 10° 301° (WNW) 3,179 7.3 -29.0°
Maximum altitude 20:42:59 82° 28° (NNE) 1,143 4.1 -30.9°
Enters shadow 20:43:06 82° 44° (NE) 1,142 4.1 -31.0°
